This is the latest recevied weather packets stored in our database for station/object KA3RQR. If no packets are shown the sender has not sent any weather packets the latest 10 day(s).
| Time | Temp. | Humidity | Pressure | Rain* | Wind** | Luminosity | Snow |
|---|---|---|---|---|---|---|---|
| 1777963791 | 16.11° C | 66% | 1011.3 hPa | 0 mm | - | 0 W/m² | - |
| 1777963488 | 16.67° C | 65% | 1011.2 hPa | 0 mm | - | 0 W/m² | - |
| 1777963187 | 16.11° C | 66% | 1011.3 hPa | 0 mm | - | 0 W/m² | - |
| 1777962883 | 16.11° C | 66% | 1011.2 hPa | 0 mm | - | 0 W/m² | - |
| 1777962580 | 16.11° C | 66% | 1011.1 hPa | 0 mm | - | 0 W/m² | - |
| 1777962277 | 16.11° C | 66% | 1010.9 hPa | 0 mm | - | 0 W/m² | - |
| 1777961973 | 15.56° C | 67% | 1010.9 hPa | 0 mm | - | 0 W/m² | - |
| 1777961672 | 16.11° C | 68% | 1011.1 hPa | 0 mm | - | 0 W/m² | - |
| 1777961369 | 16.11° C | 66% | 1011 hPa | 0 mm | - | 0 W/m² | - |
| 1777961066 | 16.11° C | 66% | 1011.1 hPa | 0 mm | - | 0 W/m² | - |
| 1777960762 | 16.11° C | 67% | 1011.2 hPa | 0 mm | - | 0 W/m² | - |
| 1777960458 | 15.56° C | 69% | 1011.3 hPa | 0 mm | - | 0 W/m² | - |
| 1777960155 | 15° C | 70% | 1011.1 hPa | 0 mm | - | 0 W/m² | - |
| 1777959852 | 15° C | 73% | 1011.2 hPa | 0 mm | - | 0 W/m² | - |
| 1777959550 | 15° C | 72% | 1011.3 hPa | 0 mm | - | 0 W/m² | - |
| 1777959247 | 15° C | 73% | 1011.2 hPa | 0 mm | - | 0 W/m² | - |
| 1777958944 | 15° C | 72% | 1011.1 hPa | 0 mm | - | 0 W/m² | - |
| 1777958641 | 15.56° C | 71% | 1011.1 hPa | 0 mm | - | 0 W/m² | - |
| 1777958338 | 15.56° C | 70% | 1011 hPa | 0 mm | - | 0 W/m² | - |
| 1777958035 | 15.56° C | 70% | 1011.1 hPa | 0 mm | - | 0 W/m² | - |
| 1777957733 | 15.56° C | 70% | 1011.1 hPa | 0 mm | - | 0 W/m² | - |
| 1777957432 | 16.11° C | 69% | 1011 hPa | 0 mm | - | 0 W/m² | - |
| 1777957128 | 16.11° C | 68% | 1011.2 hPa | 0 mm | - | 0 W/m² | - |
| 1777956824 | 16.11° C | 68% | 1011.4 hPa | 0 mm | - | 0 W/m² | - |
| 1777956522 | 16.11° C | 68% | 1011.2 hPa | 0 mm | - | 0 W/m² | - |
* Rain latest hour (hover to see other rain measurements)
** Current wind speed in m/s (hover to see current wind gust speed)